Flag Weather past 2 weeks in Konstanz, Baden-Württemberg, Germany

Now
42 °F

Low clouds.


Feels Like: 42 °F
Forecast: 34 / 49 °F
Wind: 2 mph from East

Location: Konstanz

Current Time: Nov 28, 2014 at 12:40:06 AM

Latest Report: Nov 28, 2014 at 12:00 AM


Visibility: 8 mi

Pressure: 29.85 "Hg

Humidity: 95%

Dew point: 40 °F

Location of KonstanzLocation

Historic Weather in Konstanz — Graph

°F

Konstanz temperature yesterday

Maximum temperature yesterday: 45 °F (at 12:00 AM)
Minimum temperature yesterday: 42 °F (at 11:00 PM)
Average temperature yesterday: 43 °F

Past Weeks' High & Low Weather Summary

 TemperatureHumidityPressure
High54 °F (Nov 16, 3:00 PM)100% (Nov 13, 3:00 AM)30.32 "Hg (Nov 13, 3:00 AM)
Low36 °F (Nov 20, 7:00 AM)63% (Nov 16, 2:00 PM)29.55 "Hg (Nov 15, 10:00 PM)
Average45 °F92%29.99 "Hg
* Reported Nov 12 11:00 PM — Nov 27 11:00 PM, Konstanz, Weather by CustomWeather, © 2014

Note: Actual official high and low records may vary slightly from our data, if they occured in-between our weather recording intervals... More about our weather records

Advertising

Konstanz weather history for previous 24 hours

 ConditionsComfort  
Time TempWeatherWind HumidityBarometerVisibility
11:00 PM
Nov 27
42 °FLow clouds.2 mph95%29.84 "Hg5 mi
10:00 PM42 °FLow clouds.2 mph94%29.84 "Hg6 mi
9:00 PM43 °FLow clouds.2 mph93%29.84 "Hg9 mi
8:00 PM44 °FLow clouds.1 mph92%29.83 "Hg9 mi
7:00 PM44 °FLow clouds.2 mph92%29.83 "Hg9 mi
6:00 PM44 °FLow clouds.1 mph90%29.82 "Hg12 mi
5:00 PM44 °FLow clouds.1 mph90%29.81 "Hg9 mi
4:00 PM44 °FLow clouds.1 mph88%29.81 "Hg9 mi
3:00 PM44 °FLow clouds.1 mph89%29.81 "Hg7 mi
2:00 PM44 °FLow clouds.1 mph90%29.81 "Hg6 mi
1:00 PM43 °FLow clouds.1 mph92%29.82 "Hg4 mi
12:00 PM43 °FDrizzle. Low clouds.1 mph95%29.83 "Hg2 mi
11:00 AM43 °FFog.1 mph97%29.84 "Hg2 mi
10:00 AM42 °FFog.2 mph95%29.84 "Hg2 mi
9:00 AM43 °FFog.2 mph97%29.84 "Hg2 mi
8:00 AM43 °FLow clouds.2 mph93%29.83 "Hg5 mi
7:00 AM43 °FLow clouds.2 mph93%29.84 "Hg5 mi
6:00 AM44 °FLow clouds.1 mph94%29.85 "Hg5 mi
5:00 AM44 °FLow clouds.2 mph96%29.86 "Hg6 mi
4:00 AM44 °FFog.1 mph97%29.88 "Hg1 mi
3:00 AM44 °FLow clouds.1 mph95%29.90 "Hg5 mi
2:00 AM44 °FLow clouds.2 mph92%29.91 "Hg7 mi
1:00 AM45 °FLow clouds.1 mph91%29.92 "Hg11 mi
12:00 AM45 °FLow clouds.1 mph90%29.93 "Hg11 mi
Weather by CustomWeather, © 2014

See weather overviewHow to use our weather pages